Montana Department of Transportation

Malcolm “Mack” Long, Director

COVID-19

View the Governor’s Coronavirus Task Force site for more information.

Main Content

Accidents and Incidents Report

Hourly Weather Roundup

ASUS45 KTFX 080310

RWRMT 

Montana Regional Weather Roundup

National Weather Service Great Falls MT

900 PM MDT FRI MAY 07 2021



NOTE: "FAIR" indicates few or no clouds below 12,000 feet with no

significant weather and/or obstructions to visibility.



MTZ001.007-043-080400-

West of the divide

  

CITY           SKY/WX    TMP DP  RH WIND       PRES   REMARKS

Kalispell      PTCLDY    49  23  36 SW17G25   29.93R                  

Missoula       MOCLDY    42  27  55 W7        30.02R                  

Butte          CLOUDY    39  32  76 N10       29.95R                  

Anaconda         N/A     39  30  70 W12       29.99R WCI  32          

Deer Lodge       N/A     39  30  70 NW22G33   30.00R WCI  29          

Hamilton       CLOUDY    43  30  61 E5        30.03S                  

Mullan Pass      N/A     28  24  85 VRB6      30.00  WCI  22          

Ronan            N/A     45  27  49 SW10      30.00R                  

--------------------------------



MTZ008-052.055-080400-

Southwest Montana

  

CITY           SKY/WX    TMP DP  RH WIND       PRES   REMARKS

Bozeman        LGT RAIN  44  40  85 NW17G28   29.89R                  

Dillon         CLOUDY    43  41  93 E14       29.89R                  

Three Forks      N/A     45  37  73 N3        29.92R                  

W Yellowstone  MOCLDY    50  25  37 SW7G20    29.86R                  

--------------------------------



MTZ009-010-012-014-046-048-049-054-080400-

East Slopes and Central Montana

  

CITY           SKY/WX    TMP DP  RH WIND       PRES   REMARKS

Cut Bank       CLOUDY    45  28  51 W17       29.88R                  

Great Falls    LGT RAIN  46  43  89 NW7       29.89S                  

Helena         CLOUDY    47  35  63 W13       29.94R                  

Malmstrom AFB  RAIN      46  45  93 NW12      29.91R                  

Augusta        FAIR      42  32  68 NW13      29.91R                  

Bowmans Corner MOCLDY    43  37  78 W8        29.89R                  

Choteau          N/A     46  32  57 W13       29.89S                  

Fairfield      MOCLDY    47  44  89 CALM      29.89R                  

Raynesford     LGT RAIN  46  42  84 S10       29.89S                  

Ulm            MOCLDY    46  43  88 W12       29.89R                  

--------------------------------



MTZ011-013-016-021-045-047-050-051-080400-

North Central Montana

  

CITY           SKY/WX    TMP DP  RH WIND       PRES   REMARKS

Havre          LGT RAIN  50  48  93 W7        29.82R                  

Lewistown      RAIN      48  46  93 W12       29.86S                  

Denton         RAIN      49  47  93 W14       29.82R                  

Fort Benton      N/A     46  43  87 W16G26    29.88R                  

Grass Range    SHOWER    49  47  95 W25G31    29.81R                  

N Bar Ranch    LGT RAIN  46  41  81 NW23G33   29.83R                  

Roy            RAIN      49  48  96 W23G30    29.81R                  

Stanford       RAIN      44  42  91 W13       29.87R                  

Winifred       RAIN      49  48  94 W8        29.84R                  

--------------------------------



MTZ017.020-022.027-061-062-080400-

Northeast Montana

  

CITY           SKY/WX    TMP DP  RH WIND       PRES   REMARKS

Glasgow        MOCLDY    61  21  21 E28G40    29.76S                  

Circle           N/A     61  23  23 E18G26    29.76                   

Glendive       MOCLDY    59  23  25 E22G29    29.82R                  

Jordan           N/A     65  28  24 E23G32    29.68S                  

Malta          CLOUDY    63  21  20 E23G31    29.72R                  

Plentywood     MOCLDY    54  16  22 E24       29.93R                  

Poplar           N/A     57  21  24 E20G30    29.84R                  

Sidney         MOCLDY    57  24  28 E21       29.89R                  

Wolf Point     MOCLDY    60  22  23 E23G35    29.83R                  

--------------------------------



MTZ028.42-056.058-080400-

Southcentral and southeast Montana

  

CITY           SKY/WX    TMP DP  RH WIND       PRES   REMARKSBaker          MOCLDY    55  21  26 E33G43    29.81R                  

Big Timber     CLOUDY    50  39  66 W15       29.82F                  

Billings       MOCLDY    54  40  59 NW39G52   29.69F                  

Hardin         PTCLDY    64  45  48 W29G38    29.60                   

Harlowton      MOCLDY    44  42  91 NW16      29.85S                  

Laurel           N/A     52  41  66 NW28G46   29.74R                  

Livingston     LGT RAIN  47 N/A N/A SW9       29.84F                  

Miles City     CLOUDY    63  29  27 SE15G25   29.74R                  

--------------------------------



Regional Reports...Dakotas/MN

  

CITY           SKY/WX    TMP DP  RH WIND       PRES   REMARKS

Williston      MOCLDY    53  18  25 E22G41    29.94R                  

Minot          PTCLDY    49  19  30 E12       30.06R                  

Dickinson      MOCLDY    52  20  28 E21G31    29.91R                  

Beach          FAIR      54  18  24 SE30G38   29.85S                  

Crosby         CLOUDY    50  16  25 E17       30.02R                  

Hettinger      MOCLDY    51  22  31 E21       29.93R                  

Tioga          FAIR      50  16  25 E18G24    30.02R                  

Watford City   FAIR      54  19  26 E20       29.95R                  

Bismarck       PTCLDY    50  22  33 E13       30.05R                  

Grand Forks    CLEAR     46  22  38 NE5       30.11R                  

Fargo          CLEAR     47  19  33 NE6       30.09R                  

Buffalo SD       N/A     55  24  30 E28G40    29.81S                  

Rapid City     CLOUDY    57  35  43 E9        29.84R                  

Intl Falls     CLEAR     35  25  66 CALM      30.08R                  

Duluth         PTCLDY    41  22  46 W3        30.09R                  

Minneapolis    PTCLDY    49  25  39 NE5       30.10R                  

--------------------------------



Regional Reports...WY/CO/ID/WA/OR

  

CITY           SKY/WX    TMP DP  RH WIND       PRES   REMARKS

Buffalo WY     CLOUDY    66  35  31 S17       29.68R                  

Cody           MOCLDY    58  40  51 NE14G21   29.73R                  

Gillette       MOCLDY    65  42  43 S28G41    29.67R                  

Powell         FAIR      54  34  47 N40G47    29.71R                  

Sheridan       CLOUDY    69  36  29 SW14      29.60R                  

Yellowstone La   N/A     43  28  55 MISG      29.96R                  

Boise          CLEAR     56  20  24 NW17G35   30.02R                  

Couer d'Alene  MOCLDY    44  36  73 SE7       30.04F                  

Idaho Falls    CLOUDY    54  33  45 SW24G35   29.86F                  

Salmon         CLOUDY    45  27  49 N16G26    30.01R                  

Spokane        MOCLDY    48  25  40 W15       30.04R                  

Seattle        MOCLDY    51  39  63 SW3       30.28R                  

Portland       PTCLDY    54  35  48 NW14      30.33R                  

--------------------------------



Regional Reports...Alberta

  

CITY           SKY/WX    TMP DP  RH WIND       PRES   REMARKS

Calgary        MOCLDY    52  43  71 N10       29.69S                  

Edmonton       CLOUDY    43  41  93 E13G18    29.91R                  

Fort McMurray  CLOUDY    52  23  32 E16G24    30.07R                  

High Level     CLOUDY    52  37  58 SE13G23   29.99R                  

Lethbridge     MOCLDY    52  28  40 SW16G23   29.80S                  

Lloydminster   CLOUDY    54  16  22 E16G23    29.96R                  

Medicine Hat   LGT RAIN  48  48 100 VRB7      29.85R FOG              

Onefour          N/A     46  45  93 NW16        N/A                   

Peace River    LGT RAIN  41  37  87 NE5       29.95R                  

Pincher Creek  CLOUDY    46  18  31 W22       29.82S                  

Fort Smith NWT MOCLDY    45  21  39 SE7       30.19R                  

--------------------------------



Regional Reports...Saskatchewan

  

CITY           SKY/WX    TMP DP  RH WIND       PRES   REMARKS

Coronach         N/A     54  19  26 E16G23      N/ACypress Hills    N/A     52  21  30 E6          N/A                   

Estevan        MOCLDY    48  18  29 E12G18    30.04R                  

Moose Jaw        N/A     54  14  20 E20G26      N/A                   

Prince Albert  CLOUDY    50  25  37 E15       30.13R                  

Regina         CLOUDY    54  18  24 E18       30.03R                  

Saskatoon      CLOUDY    52  19  28 E21G29    30.03R                  

Swift Current  CLOUDY    55  19  24 E18G24    29.87S                  

Val Marie        N/A     57  18  21 E22G29      N/A                   

--------------------------------